Location: Ahstedt
(52.2048°N, 10.1060°E)
Time: 14:06:44
(UTC+00:00)

Cosmos 1633 Rocket - Pass Details

Date: 18 January 2026
Orbit: 600 x 616 km, 82.5° (Epoch: 15 February)

Event Time Altitude Azimuth Distance (km) Brightness Sun altitude
Rises 06:22:42 0° 212° (SSW) 2,857 6.4 -8.4°
Reaches altitude 10° 06:25:04 10° 222° (SW) 1,956 5.4 -8.1°
Maximum altitude 06:29:03 36° 289° (WNW) 976 3.6 -7.5°
Drops below altitude 10° 06:33:04 10° 356° (N) 1,962 5.4 -6.9°
Sets 06:35:26 0° 6° (N) 2,868 6.3 -6.6°
